Location: Orinda
(37.8771°N, 122.1797°W)
Time: 08:30:39
(UTC+00:00)

Daily predictions for brighter satellites

Satellite Brightness Start Highest point End
(mag) Time Altitude Azimuth Time Altitude Azimuth Time Altitude Azimuth
IDEFIX/ARIANE 42P 3.0 12:01:20 10° N 12:05:19 53° N 12:05:19 53° N
SL-16 R/B 3.1 12:05:10 13° S 12:09:58 47° ESE 12:15:23 10° NE
MSX 3.9 12:04:19 10° NNE 12:10:02 74° ESE 12:15:04 14° S
Cosmos 676 Rocket 4.3 12:09:55 37° S 12:11:58 66° ESE 12:17:11 10° NNE
NOSS 0 Rocket 4.3 12:13:34 45° NW 12:13:34 45° NW 12:18:40 10° NNE
ATLAS 2AS CENTAUR R/B 3.4 12:13:55 43° WNW 12:14:35 44° NW 12:22:13 10° NNE
Cosmos 2154 Rocket 4.5 12:08:47 10° S 12:14:49 58° E 12:20:54 10° NNE
Cosmos 407 Rocket 4.1 12:21:12 40° NNW 12:21:12 40° NNW 12:24:50 10° N
Cosmos 1190 Rocket 4.2 12:21:57 55° NW 12:21:57 55° NW 12:26:34 10° N
USA 238 DEB 4.3 12:23:24 39° SW 12:23:24 39° SW 12:29:22 10° S
USA 238 4.3 12:23:25 40° SW 12:23:25 40° SW 12:29:28 10° S
Cosmos 2278 Rocket 2.1 12:22:13 59° WNW 12:23:01 67° WSW 12:28:37 10° S
Cosmos 2184 Rocket 3.8 12:19:47 22° SSW 12:23:54 72° W 12:30:12 10° N
Cosmos 2333 Rocket 4.1 12:33:19 14° NNW 12:33:19 14° NNW 12:34:49 10° NNW
Meteor 1-4 Rocket 4.1 12:33:27 25° N 12:33:27 25° N 12:35:03 10° N
Cosmos 1892 Rocket 4.2 12:28:46 10° S 12:33:05 55° E 12:37:23 10° NNE
SJ-6F 4.3 12:31:54 10° NNE 12:36:04 89° SE 12:38:33 23° SSW
Nadezhda 3 Rocket 4.3 12:29:57 10° N 12:36:18 71° E 12:42:35 10° SSE
H-2A R/B 2.6 12:37:45 10° N 12:41:43 51° WNW 12:41:43 51° WNW
Cosmos 1726 3.9 12:38:50 10° NNE 12:42:12 33° ENE 12:45:33 10° SE
USA 267 4.2 12:40:22 10° NNE 12:45:52 30° NNW 12:48:01 25° WNW
Cosmos 2219 Rocket 4.2 12:47:49 11° NNW 12:47:49 11° NNW 12:48:30 10° NNW
Cosmos 1606 Rocket 3.4 12:43:27 10° N 12:47:47 85° W 12:52:06 10° S
Cosmos 1953 2.2 12:44:51 10° NNW 12:48:50 64° W 12:52:46 10° S
Cosmos 1707 4.4 12:52:58 21° NNW 12:52:58 21° NNW 12:54:33 10° NNW
GP-B 3.7 12:47:42 10° SSE 12:52:03 60° E 12:56:25 10° N
Cosmos 1356 3.6 12:49:36 10° N 12:53:04 70° E 12:56:30 10° SSE
Cosmos 2074 Rocket 4.4 12:49:46 21° SW 12:53:24 39° WNW 12:59:11 10° N
Cosmos 1295 Rocket 4.4 12:50:03 10° S 12:56:15 87° W 13:02:24 10° N
In-Cosmos 22 4.0 12:50:58 10° S 12:56:17 84° W 13:01:47 10° N
Cosmos 1140 Rocket 4.0 12:55:32 32° W 12:56:39 36° WNW 13:01:24 10° N
Meteor 1-31 Rocket 2.6 12:53:46 10° N 12:57:32 67° WNW 13:01:17 10° SSW
CZ-4B R/B 2.6 12:53:59 10° N 12:57:53 72° WNW 13:01:36 10° SSW
Cosmos 1954 Rocket 4.2 12:54:49 21° SW 12:58:02 49° WNW 13:03:05 10° N
Cosmos 2237 Rocket 3.2 12:58:52 25° WNW 12:59:16 25° WNW 13:03:54 10° N
Cosmos 44 3.8 13:00:00 30° WSW 13:00:00 30° WSW 13:03:32 10° S
Meteor 2-5 Rocket 4.2 12:56:46 10° S 13:02:29 68° E 13:08:21 10° NNE
Cosmos 1674 3.1 12:59:07 10° S 13:02:45 62° E 13:06:27 10° NNE
PAYLOAD A 4.4 13:04:58 10° N 13:09:28 37° WNW 13:14:06 10° SW
PSLV R/B 3.0 13:11:40 40° NW 13:12:11 48° N 13:14:45 10° ENE
Cosmos 1484 Rocket 2.9 13:09:27 10° NNE 13:13:17 77° ESE 13:17:09 10° S
Okean 1-7 Rocket 3.8 13:09:54 10° SSW 13:14:10 48° W 13:18:32 10° N
COSMO-SKYMED 1 3.1 13:11:38 10° SSE 13:15:54 62° ENE 13:20:11 10° N
Cosmos 2369 Rocket 4.1 13:11:58 10° N 13:16:47 29° ENE 13:21:34 10° ESE
Cosmos 44 Rocket 3.3 13:12:53 10° NNW 13:17:36 76° ENE 13:22:16 10° SE
USA 234 3.2 13:11:08 10° SE 13:17:40 73° SW 13:24:12 10° NW
Cosmos 2228 3.3 13:14:33 10° NNW 13:18:34 41° W 13:22:32 10° SSW
Centaur D-1AR AC-39 4.1 13:16:19 10° SSW 13:18:52 15° SSE 13:22:56 10° ESE
RESURS DK-1 3.5 13:20:29 21° W 13:21:50 24° WNW 13:25:15 10° N
Cosmos 1726 Rocket 4.1 13:23:40 10° NNW 13:27:36 35° W 13:31:32 10° SSW
Helios 1A Rocket 3.3 13:24:00 10° NNE 13:28:09 69° ESE 13:32:16 10° S
PAYLOAD B 4.4 13:23:06 10° NNE 13:28:41 80° ESE 13:34:11 10° S
CZ-4B R/B 3.8 13:23:54 10° NNE 13:29:07 58° ESE 13:34:19 10° S
SL-8 R/B 3.7 13:25:55 11° WSW 13:30:29 79° NNW 13:35:18 10° NE
CZ-2C R/B 3.3 13:26:51 10° N 13:31:17 29° WNW 13:35:40 10° SW
COBE Rocket 3.9 13:29:30 10° S 13:34:31 72° W 13:39:40 10° NNW
ATLAS 3B R/B 3.4 13:33:15 10° NW 13:39:05 32° WSW 13:45:05 10° S
Cosmos 1741 Rocket 4.2 13:35:21 10° SW 13:40:32 53° WNW 13:45:46 10° N
Cosmos 1943 Rocket 3.1 13:36:00 10° NNW 13:41:34 53° ENE 13:47:04 10° SE
Cosmos 1602 Rocket 3.5 13:38:02 10° S 13:42:22 88° ESE 13:46:42 10° N
SL-14 R/B 3.7 13:40:06 10° S 13:44:01 67° E 13:47:53 10° NNE
METEOR-M 4.1 13:41:04 10° NNE 13:46:26 87° WNW 13:51:46 10° SSW
FENGYUN 3A 3.8 13:41:33 10° NNE 13:47:01 88° E 13:52:28 10° SSW
CENTAUR R/B 3.9 13:41:15 10° NW 13:48:16 31° WSW 13:55:31 10° SSW
Cosmos 1763 Rocket 3.6 13:45:33 10° NNW 13:50:43 80° ENE 13:55:48 10° SSE
SJ-12 4.1 13:47:18 10° N 13:51:16 48° WNW 13:55:13 10° SSW
Iridium 51 4.1 13:47:56 10° NNW 13:51:30 53° W 13:54:53 10° SSW
KORONAS-FOTON 4.5 13:49:10 10° SW 13:52:33 31° WNW 13:55:58 10° NNW
Okean O Rocket 1.5 13:48:27 10° N 13:52:51 72° WNW 13:57:10 10° SSW
Cosmos 2058 Rocket 3.9 13:49:16 10° NNW 13:53:07 29° W 13:56:57 10° SSW
Cosmos 1603 3.7 13:48:09 10° SSW 13:53:46 81° WNW 13:59:27 10° NNE
SL-16 R/B 3.3 13:49:50 10° WSW 13:54:19 24° NW 13:58:49 10° N
Meteor 1-24 Rocket 3.9 13:50:48 10° SSW 13:56:26 58° WNW 14:02:17 10° N
Cosmos 2218 Rocket 4.1 13:50:36 10° SSW 13:56:54 62° W 14:03:11 10° N
Cosmos 1437 Rocket 4.2 13:56:02 10° WSW 13:58:31 17° WNW 14:01:00 10° NNW
